ATLAS 5 CENTAUR DEB, 44849

Orbit data source: Space-Track

ATLAS 5 CENTAUR DEB, 44849 is space debris in HEO originally from a launch on Wed, 17 Sep 2014 UTC launched from the Air Force Eastern Test Range (AFETR). Debris objects in space refer to the collection of defunct objects orbiting the Earth. Examples of debris include non-operational satellites, rocket bodies, and fragments generated from explosions, collisions, or faulty payload assembly.

Loading next visibility...
Identifier
44849, 2014-055CH
Orbit
HEO
Country
Flag of USUS
Related business
Flag of USUnited Launch Alliance/Lockheed Martin (US)
Manufacturer
Unknown
Mission
Spacecraft
Bus & Motor
Unknown
Mass
Unknown
Launch date (UTC)
2014-09-17 (12 years ago)
Launch vehicle
Unknown
Launch site
Air Force Eastern Test Range (AFETR)
Object type
Payload
Rocket body
Debris
Shape & HBR
Unknown shape, 1.1 m
Radar Cross Section
Medium (>0.1 m² and <1 m²)

Expand to show TLE details & history
Last TLE update: 3 days ago

TLE from 3 days ago
0 ATLAS 5 CENTAUR DEB
1 44849U 14055CH  26170.90497574  .00000181  00000-0  00000+0 0  9994
2 44849  21.2367  86.3255 5044390 268.0749  36.0287  1.95521702 49058
Epoch: 2026-06-19T21:43Z
TLE epoch observation values (Epoch: 2026-06-19T21:43:09.903Z)
Latitude
0.00009°
Longitude
-147.63292°
Altitude
14,137.713 km
Speed
4.91 km/s
True Right ascension
05h 45m 08s
True Declination
0° 00' 00"
Sunlit
Object was in daylight at epoch
Visualization orbit readout
Latitude
Unknown
Longitude
Unknown
Altitude
Unknown
Speed
Unknown
Apparent Right ascension
Unknown
Apparent Declination
Unknown
Sunlit
N/A
Visualization observer readout
Local Sidereal Time
21:37:19
Azimuth
Unknown
Elevation
Unknown
Doppler factor
Unknown
Orbital elements
Apogee altitude
34,267.389 km
Perigee altitude
7,010.467 km
Semi-major axis
27,017.065 km
Eccentricity
0.50444
Inclination
21.2367°
RAAN
86.3255°
Arg. of periapsis
268.0749°
True anomaly
91.95174°
Mean anomaly
36.0287°
Eccentric anomaly
61.40575°
Mean motion
0.48875 °/min
Orbital period
736.57 mins
BSTAR
0
Loading maneuver chart data...
Computing Atmospheric mass density...

Documentation

Showing up to 5 results
|